Location: Cremona
(45.1170°N, 10.0330°E)
Time: 10:14:58
(UTC+02:00)

ISS - Visible Passes

Search period start: 08 May 2021 00:00
Search period end: 18 May 2021 00:00
Orbit: 418 x 421 km, 51.6° (Epoch: 08 May)

Date Brightness Start Highest point End Pass type
(mag) Time Alt. Az. Time Alt. Az. Time Alt. Az.
08 May -2.3 02:49:24 37° N 02:49:24 37° N 02:52:07 10° NE visible
08 May -1.6 04:23:22 10° WNW 04:26:17 26° N 04:29:11 10° ENE visible
09 May -1.3 02:03:26 21° NE 02:03:26 21° NE 02:04:43 10° NE visible
09 May -1.7 03:36:23 14° WNW 03:38:41 26° N 03:41:36 10° NE visible
09 May -2.1 05:12:55 10° NW 05:16:06 36° NNE 05:19:16 10° E visible
10 May -1.9 02:50:22 26° NNW 02:51:06 28° N 02:54:05 10° NE visible
10 May -1.8 04:25:30 10° NW 04:28:33 30° NNE 04:31:35 10° ENE visible
11 May -1.7 02:04:21 28° NNE 02:04:21 28° NNE 02:06:37 10° NE visible
11 May -1.6 03:38:00 10° NW 03:40:58 27° N 03:43:55 10° ENE visible
11 May -3.3 05:14:49 10° WNW 05:18:12 66° NNE 05:21:34 10° ESE visible
12 May -1.1 01:18:16 17° NE 01:18:16 17° NE 01:19:11 10° NE visible
12 May -1.5 02:51:12 14° NW 02:53:22 26° N 02:56:16 10° ENE visible
12 May -2.6 04:27:25 10° NW 04:30:42 47° NNE 04:33:59 10° E visible
13 May -1.6 02:05:02 24° NNW 02:05:46 26° N 02:08:41 10° NE visible
13 May -2.1 03:40:01 10° NW 03:43:11 36° NNE 03:46:21 10° E visible
13 May -3.6 05:16:48 10° WNW 05:20:07 53° SW 05:23:24 10° SE visible
14 May -1.6 01:18:38 27° N 01:18:38 27° N 01:21:09 10° NE visible
14 May -1.8 02:52:34 10° NW 02:55:37 30° NNE 02:58:40 10° ENE visible
14 May -3.8 04:29:19 10° WNW 04:32:42 83° SSW 04:36:05 10° ESE visible
14 May -1.7 21:16:29 10° SE 21:17:18 11° SE 21:18:07 10° ESE visible
14 May -3.9 22:50:13 10° SW 22:53:33 71° SSE 22:55:40 21° ENE visible
15 May -1.9 00:27:30 10° W 00:30:35 32° NNW 00:33:41 10° NE visible
15 May -1.6 02:05:05 10° NW 02:08:02 27° N 02:10:59 10° ENE visible
15 May -3.4 03:41:53 10° WNW 03:45:16 66° NNE 03:48:38 10° ESE visible
15 May -3.5 22:02:58 10° SW 22:06:11 44° SE 22:09:25 10° ENE visible
15 May -2.4 23:39:50 10° W 23:43:02 39° NNW 23:46:15 10° NE visible
16 May -1.5 01:17:31 10° WNW 01:20:25 26° N 01:23:20 10° ENE visible
16 May -2.7 02:54:29 10° NW 02:57:46 47° NNE 03:01:03 10° E visible
16 May -3.1 04:31:26 10° WNW 04:34:30 32° SW 04:37:34 10° SSE visible
16 May -2.8 21:15:56 10° SSW 21:18:51 27° SE 21:21:46 10° ENE visible
16 May -2.9 22:52:13 10° WSW 22:55:31 52° NNW 22:58:50 10° NE visible
17 May -1.5 00:29:55 10° WNW 00:32:49 26° N 00:35:44 10° NE visible
17 May -2.2 02:07:04 10° NW 02:10:14 36° NNE 02:13:24 10° E visible
17 May -3.7 03:43:51 10° WNW 03:47:09 52° SW 03:50:27 10° SE visible
17 May -3.6 22:04:40 10° WSW 22:08:02 76° NNW 22:11:25 10° ENE visible
17 May -1.6 23:42:15 10° WNW 23:45:13 28° N 23:48:12 10° NE visible
